Overview Statistics Trail Chart Weather Telemetry Raw packets
 

This is the latest recevied weather packets stored in our database for station/object KB0BS-13. If no packets are shown the sender has not sent any weather packets the latest 10 day(s).

<< 59 60 61 62 63 64 65 >>
Time Temp. Humidity Pressure Rain* Wind** Luminosity Snow
1777301357 13.89° C 47% 1020.2 hPa 0 mm - 519 W/m² -
1777301053 13.89° C 48% 1020.2 hPa 0 mm - 509 W/m² -
1777300751 13.89° C 51% 1020.1 hPa 0 mm - 490 W/m² -
1777300449 13.33° C 59% 1020.4 hPa 0 mm - 492 W/m² -
1777300146 12.78° C 61% 1020.1 hPa 0 mm - 461 W/m² -
1777299842 12.22° C 66% 1020.4 hPa 0 mm - 424 W/m² -
1777299540 12.22° C 67% 1020.4 hPa 0 mm - 399 W/m² -
1777299238 11.67° C 71% 1020.5 hPa 0 mm - 436 W/m² -
1777298934 11.67° C 73% 1020.7 hPa 0 mm - 482 W/m² -
1777298632 11.11° C 73% 1020.8 hPa 0 mm - 453 W/m² -
1777298328 10.56° C 73% 1021.3 hPa 0 mm - 355 W/m² -
1777298024 10.56° C 74% 1021.1 hPa 0 mm - 390 W/m² -
1777297719 10° C 74% 1021.1 hPa 0 mm - 370 W/m² -
1777297418 9.44° C 76% 1021.3 hPa 0 mm - 351 W/m² -
1777297114 8.89° C 77% 1021.3 hPa 0 mm - 273 W/m² -
1777296811 8.33° C 77% 1021.1 hPa 0 mm - 202 W/m² -
1777296507 8.33° C 77% 1021.3 hPa 0 mm - 173 W/m² -
1777296203 7.78° C 79% 1021.2 hPa 0 mm - 186 W/m² -
1777295899 7.78° C 78% 1021.2 hPa 0 mm - 162 W/m² -
1777295597 7.78° C 79% 1021.1 hPa 0 mm - 238 W/m² -
1777295294 7.78° C 80% 1020.9 hPa 0 mm - 296 W/m² -
1777294992 7.78° C 78% 1021.1 hPa 0 mm - 305 W/m² -
1777294688 7.22° C 78% 1020.9 hPa 0 mm - 246 W/m² -
1777294383 7.22° C 79% 1021 hPa 0 mm - 270 W/m² -
1777294080 6.67° C 83% 1021 hPa 0 mm - 255 W/m² -

* Rain latest hour (hover to see other rain measurements)
** Current wind speed in m/s (hover to see current wind gust speed)